User: anonymous   Login
Location: Fort Wayne
(41.1310°N, 85.1290°W)
Time: 00:41:32
(UTC-04:00)
Language:

Cosmos 2056 Rocket - Orbit

View from above orbital plane
View from above orbital plane
View from above satellite
View from above satellite

Ground track
Ground track

The orbit data is extracted from the following two-line orbital elements,

1 20433U 90004B   16176.80779581  .00000036  00000-0  21074-4 0  9998
2 20433  74.0370 292.2049 0040397 149.7450 324.8896 14.35935854383906
Epoch (UTC): 24 June 2016 19:23:13
Eccentricity: 0.0040397
inclination: 74.0370°
perigee height: 743 km
apogee height: 801 km
right ascension of ascending node: 292.2049°
argument of perigee: 149.7450°
revolutions per day: 14.35935854
mean anomaly at epoch: 324.8896°
orbit number at epoch: 38390

The dashed part of the orbit path shows where the satellite is in the earth's shadow,  

DLR